sat.trackr.live / text

‹ back to catalog

STARLINK-5997

NORAD 56327 · 2023-058L

PAYLOAD ACTIVE UNKNOWN

§ Identity

Operator
Country
US
Launch date
2023-04-27
Launch site
AFWTR
Launch vehicle
Mass (kg)
RCS (m²)

Purposes: comms

External: N2YO · Heavens-Above · Gunter

§ Orbital elements

Epoch: 2026-09-20T22:00:03.000096Z

Period
94.83 min
Inclination
97.2839°
Eccentricity
0.0002457
Mean motion
15.18538748 rev/d
Perigee alt
508.6 km
Apogee alt
511.9 km
Semi-major
6,888.4 km
B*
3.3525e-3
RAAN
257.7590°
Arg perigee
93.2848°
Mean anomaly
337.5481°
Rev number
568

§ Raw data

STARLINK-59971 56327U 23058L   26263.91670139  .00069768  00000+0  33525-2 0  99912 56327  97.2839 257.7590 0002457  93.2848 337.5481 15.18538748  5680

JSON: /api/v1/satellites/56327 · /tle

For live sub-satellite position, see the globe view (requires WebGL).

§ Visibility from observer

Set your observer location to see the next 7 days of passes ≥ 10°. The values pass through the URL so the page stays shareable.

No JS? Fill the form by hand. The geolocation button needs JavaScript.